Date_and_time,latitude,longitude,wind_speed,RelWindDirFrom,WindDirFrom,air_pressure,air_temperature,relative_humidity,Temp,platform_speed_wrt_ground,air_pressure_at_mean_sea_level,platform_orientation
2019-02-16 00:00,50.6304433333333,-96.98077,3.7,4.5,178,995.85,-18.2,76,0.39,0.0,1025.92,0.0
2019-02-16 00:00,50.6304433333333,-96.98077,4.1,4.1,182,995.90,-18.2,76,0.39,0.0,1025.99,90.0
2019-02-16 00:10,50.6304416666667,-96.9807683333333,4.0,4.5,175,995.93,-18.4,77,0.40,0.0,1026.04,90.0
2019-02-16 00:20,50.6304366666667,-96.980765,3.8,4.2,179,996.06,-19.0,78,0.40,0.0,1026.20,90.0
2019-02-16 00:30,50.6304416666667,-96.980775,4.3,4.7,179,996.09,-18.6,77,0.40,0.0,1026.21,90.0
2019-02-16 00:40,50.6304383333333,-96.980765,4.7,5.1,179,996.13,-18.5,76,0.40,0.0,1026.23,90.0
2019-02-16 00:50,50.6304416666667,-96.9807633333333,5.3,5.6,182,996.15,-18.5,76,0.40,0.0,1026.23,90.0
2019-02-16 01:00,50.6304416666667,-96.980765,4.5,5.1,187,996.18,-18.5,76,0.40,0.0,1026.25,270.0
2019-02-16 01:10,50.6304416666667,-96.9807666666667,4.1,4.7,194,996.17,-18.7,77,0.40,0.0,1026.24,270.0
2019-02-16 01:20,50.6304416666667,-96.9807683333333,4.2,4.9,215,996.20,-18.6,77,0.40,0.0,1026.33,270.0
2019-02-16 01:30,50.6304416666667,-96.9807683333333,4.5,5.4,229,996.31,-18.3,76,0.40,0.0,1026.44,270.0
2019-02-16 01:40,50.6304433333333,-96.9807683333333,5.6,6.6,239,996.32,-17.9,75,0.41,0.0,1026.44,270.0
2019-02-16 01:50,50.6304433333333,-96.9807666666667,5.7,6.6,247,996.33,-17.6,73,0.41,0.0,1026.43,270.0
2019-02-16 02:00,50.6304433333333,-96.9807666666667,5.3,6.5,243,996.37,-17.4,71,0.41,0.0,1026.47,0.0
2019-02-16 02:10,50.6304433333333,-96.9807666666667,4.4,5.9,241,996.33,-17.8,72,0.41,0.0,1026.49,0.0
2019-02-16 02:20,50.6304433333333,-96.9807666666667,3.8,4.6,245,996.27,-18.0,74,0.41,0.0,1026.41,0.0
2019-02-16 02:30,50.6304433333333,-96.9807683333333,4.7,5.8,248,996.25,-18.0,73,0.41,0.0,1026.39,0.0
2019-02-16 02:40,50.6304466666667,-96.9807483333333,4.9,6.3,248,996.04,-18.2,73,0.41,0.0,1026.18,0.0
2019-02-16 02:50,50.6304233333333,-96.9807366666667,5.9,7.2,248,996.05,-18.3,73,0.41,0.0,1026.20,0.0
2019-02-16 03:00,50.63046,-96.9807783333333,5.1,6.7,240,996.05,-18.7,73,0.41,0.0,1026.24,328.9
2019-02-16 03:10,50.63045,-96.9807666666667,4.5,5.6,251,995.91,-18.9,75,0.41,0.0,1026.09,328.9
2019-02-16 03:20,50.6304483333333,-96.9807633333333,4.1,5.5,248,995.88,-18.9,75,0.41,0.0,1026.05,328.9
2019-02-16 03:30,50.6304466666667,-96.9807666666667,3.7,4.6,249,995.80,-19.3,77,0.41,0.0,1025.97,328.9
2019-02-16 03:40,50.6304466666667,-96.980765,3.4,4.3,249,995.77,-19.5,78,0.41,0.0,1025.93,328.9
2019-02-16 03:50,50.6304466666667,-96.9807633333333,2.7,4.3,271,995.69,-19.5,78,0.41,0.0,1025.84,328.9
2019-02-16 04:00,50.6304316666667,-96.98078,0.6,2.9,261,995.66,-20.2,78,0.41,0.0,1025.87,235.2
2019-02-16 04:10,50.6304516666667,-96.980775,1.7,2.8,240,995.64,-21.2,80,0.41,0.0,1025.92,235.2
2019-02-16 04:20,50.6304516666667,-96.9807733333333,2.6,3.1,234,995.59,-20.6,82,0.41,0.0,1025.84,235.2
2019-02-16 04:30,50.6304383333333,-96.9807783333333,3.5,4.3,229,995.57,-20.6,83,0.42,0.0,1025.83,235.2
2019-02-16 04:40,50.6304433333333,-96.9807683333333,2.6,3.2,257,995.39,-20.2,83,0.41,0.0,1025.62,235.2
2019-02-16 04:50,50.63045,-96.9807716666667,2.2,3.2,258,995.32,-20.2,82,0.41,0.0,1025.58,235.2
2019-02-16 05:00,50.63045,-96.98077,2.7,4.6,247,995.33,-20.5,83,0.41,0.0,1025.62,360.0
2019-02-16 05:10,50.6304366666667,-96.980775,2.6,4.7,254,995.38,-20.5,83,0.41,0.0,1025.67,360.0
2019-02-16 05:20,50.6304566666667,-96.9807933333333,1.3,3.2,241,995.44,-21.1,82,0.41,0.0,1025.79,360.0
2019-02-16 05:30,50.6304516666667,-96.9807783333333,1.4,2.5,265,995.44,-21.5,83,0.41,0.0,1025.83,360.0
2019-02-16 05:40,50.6304466666667,-96.9807766666667,1.6,2.2,210,995.53,-22.7,83,0.42,0.0,1025.99,360.0
2019-02-16 05:50,50.63045,-96.9807766666667,0.4,1.6,207,995.51,-22.7,85,0.42,0.0,1026.01,360.0
2019-02-16 06:00,50.6304516666667,-96.9807766666667,2.6,3.8,164,995.56,-24.3,83,0.42,0.0,1026.23,119.2
2019-02-16 06:10,50.6304566666667,-96.980775,1.3,2.5,186,995.47,-24.0,85,0.42,0.0,1026.08,119.2
2019-02-16 06:20,50.630455,-96.9807783333333,2.5,3.5,190,995.50,-23.2,85,0.42,0.0,1026.05,119.2
2019-02-16 06:30,50.6304516666667,-96.9807766666667,3.7,4.4,200,995.60,-24.0,82,0.42,0.0,1026.19,119.2
2019-02-16 06:40,50.630475,-96.9807816666667,3.7,4.7,213,995.74,-23.4,83,0.42,0.0,1026.30,119.2
2019-02-16 06:50,50.63044,-96.980775,3.5,4.8,222,995.85,-23.2,84,0.41,0.0,1026.42,119.2
2019-02-16 07:00,50.630455,-96.9807833333333,2.7,3.2,228,995.89,-23.2,83,0.41,0.0,1026.46,25.7
2019-02-16 07:10,50.6304433333333,-96.98076,2.5,3.1,238,995.90,-23.4,82,0.41,0.0,1026.52,25.7
2019-02-16 07:20,50.6304433333333,-96.98076,2.7,3.5,244,995.80,-23.0,84,0.41,0.0,1026.41,25.7
2019-02-16 07:30,50.6304416666667,-96.9807616666667,1.9,2.6,248,995.75,-22.6,83,0.41,0.0,1026.40,25.7
2019-02-16 07:40,50.6304433333333,-96.9807633333333,2.2,3.4,243,995.76,-23.2,82,0.41,0.0,1026.46,25.7
2019-02-16 07:50,50.6304433333333,-96.980765,2.6,3.5,221,995.72,-24.9,79,0.41,0.0,1026.63,25.7
2019-02-16 08:00,50.6304433333333,-96.9807666666667,1.5,2.5,223,995.58,-24.9,80,0.41,0.0,1026.46,360.0
2019-02-16 08:10,50.63042,-96.9807783333333,0.6,2.1,238,995.55,-24.8,80,0.41,0.0,1026.37,360.0
2019-02-16 08:20,50.6304416666667,-96.98077,0.4,1.2,207,995.59,-24.8,81,0.41,0.0,1026.47,360.0
2019-02-16 08:30,50.63044,-96.9807683333333,1.1,2.4,190,995.55,-24.8,81,0.41,0.0,1026.39,360.0
2019-02-16 08:40,50.6304433333333,-96.9807666666667,1.7,2.6,187,995.48,-24.9,80,0.41,0.0,1026.30,360.0
2019-02-16 08:50,50.630445,-96.9807683333333,1.8,2.7,219,995.46,-24.7,80,0.40,0.0,1026.28,360.0
2019-02-16 09:00,50.63045,-96.9807566666667,3.7,4.6,230,995.52,-24.3,81,0.40,0.0,1026.32,90.0
2019-02-16 09:10,50.63045,-96.9807666666667,3.4,5.1,243,995.51,-24.6,81,0.41,0.0,1026.30,90.0
2019-02-16 09:20,50.6304516666667,-96.98077,0.2,1.4,2,995.42,-24.9,80,0.41,0.0,1026.21,90.0
2019-02-16 09:30,50.630455,-96.98077,0.3,1.2,28,995.29,-25.5,78,0.40,0.0,1026.15,90.0
2019-02-16 09:40,50.6304483333333,-96.98075,2.0,2.9,33,995.21,-26.2,78,0.40,0.0,1026.21,90.0
2019-02-16 09:50,50.6304533333333,-96.98076,0.8,1.9,53,995.15,-26.6,77,0.40,0.0,1026.18,90.0
2019-02-16 10:00,50.630455,-96.980765,0.3,1.8,103,995.13,-27.7,75,0.40,0.0,1026.22,90.0
2019-02-16 10:10,50.6304516666667,-96.9807683333333,1.8,2.3,158,995.02,-28.1,76,0.40,0.0,1026.14,90.0
2019-02-16 10:20,50.6304533333333,-96.9807683333333,2.7,3.0,148,994.96,-27.6,76,0.40,0.0,1026.05,90.0
2019-02-16 10:30,50.6304533333333,-96.98077,2.3,2.8,152,995.01,-27.4,77,0.40,0.0,1026.09,90.0
2019-02-16 10:40,50.6304533333333,-96.98077,2.7,3.3,170,995.09,-27.5,76,0.39,0.0,1026.17,90.0
2019-02-16 10:50,50.6304466666667,-96.980785,2.8,3.4,188,995.14,-27.4,76,0.40,0.0,1026.19,90.0
2019-02-16 11:00,50.6304483333333,-96.9807683333333,1.8,2.8,187,995.22,-26.5,78,0.40,0.0,1026.23,360.0
2019-02-16 11:10,50.6304666666667,-96.980745,0.7,1.6,190,995.28,-26.0,78,0.40,0.0,1026.28,360.0
2019-02-16 11:20,50.6304533333333,-96.9807583333333,0.2,0.9,191,995.35,-26.4,76,0.39,0.0,1026.41,360.0
2019-02-16 11:30,50.6304516666667,-96.9807833333333,1.5,2.9,212,995.45,-27.4,75,0.39,0.0,1026.63,360.0
2019-02-16 11:40,50.6304516666667,-96.9807716666667,2.2,2.7,223,995.49,-27.1,77,0.39,0.0,1026.67,360.0
2019-02-16 11:50,50.6304483333333,-96.9807683333333,2.4,2.8,225,995.38,-26.0,78,0.39,0.0,1026.56,360.0
2019-02-16 12:00,50.63045,-96.9807666666667,3.0,4.0,219,995.50,-25.8,78,0.39,0.0,1026.70,270.0
2019-02-16 12:10,50.6304516666667,-96.9807666666667,3.6,4.1,217,995.58,-26.1,78,0.38,0.0,1026.77,270.0
2019-02-16 12:20,50.63045,-96.9807683333333,3.4,4.0,231,995.54,-26.1,78,0.38,0.0,1026.71,270.0
2019-02-16 12:30,50.6304766666667,-96.9807683333333,4.1,4.6,233,995.60,-26.6,77,0.38,0.0,1026.81,270.0
2019-02-16 12:40,50.6304633333333,-96.9807733333333,4.4,5.0,231,995.65,-26.6,77,0.38,0.0,1026.86,270.0
2019-02-16 12:50,50.6304383333333,-96.9807516666667,3.6,4.4,233,995.57,-26.3,78,0.38,0.0,1026.70,270.0
2019-02-16 13:00,50.6304433333333,-96.98077,3.4,3.9,236,995.58,-25.7,79,0.38,0.0,1026.65,360.0
2019-02-16 13:10,50.6304483333333,-96.9807733333333,3.4,4.1,238,995.68,-25.3,79,0.38,0.0,1026.74,360.0
2019-02-16 13:20,50.6304566666667,-96.98077,2.1,4.1,253,995.66,-25.2,79,0.37,0.0,1026.78,360.0
2019-02-16 13:30,50.6304533333333,-96.9807733333333,3.4,4.5,243,995.79,-25.6,78,0.37,0.0,1026.91,360.0
2019-02-16 13:40,50.630455,-96.9807733333333,3.7,4.7,241,996.03,-25.8,78,0.37,0.0,1027.11,360.0
2019-02-16 13:50,50.630455,-96.9807733333333,3.0,4.0,250,996.12,-25.6,78,0.37,0.0,1027.17,360.0
2019-02-16 14:00,50.6304583333333,-96.98077,1.7,2.9,254,996.14,-25.2,78,0.37,0.0,1027.19,360.0
2019-02-16 14:10,50.6304633333333,-96.980765,0.5,1.3,263,996.11,-25.0,78,0.37,0.0,1027.15,360.0
2019-02-16 14:20,50.6304616666667,-96.980765,0.5,1.4,258,996.14,-25.3,77,0.37,0.0,1027.22,360.0
2019-02-16 14:30,50.63045,-96.98076,2.0,2.9,242,996.21,-25.6,77,0.37,0.0,1027.33,360.0
2019-02-16 14:40,50.6304533333333,-96.9807583333333,1.0,2.1,246,996.20,-24.7,78,0.37,0.0,1027.23,360.0
2019-02-16 14:50,50.6304516666667,-96.9807633333333,0.0,0.9,0,996.06,-24.1,78,0.37,0.0,1027.01,360.0
2019-02-16 15:00,50.6304516666667,-96.980765,0.4,1.4,39,996.02,-24.5,76,0.37,0.0,1026.96,0.0
2019-02-16 15:10,50.6304516666667,-96.9807666666667,1.3,1.9,150,995.99,-26.3,75,0.36,0.0,1027.04,0.0
2019-02-16 15:20,50.630455,-96.9807633333333,1.6,2.6,172,995.88,-26.6,75,0.36,0.0,1026.97,0.0
2019-02-16 15:30,50.6304516666667,-96.9807633333333,1.9,2.6,171,995.87,-26.3,75,0.37,0.0,1026.96,0.0
2019-02-16 15:40,50.6304516666667,-96.9807633333333,1.5,2.4,136,995.90,-25.2,76,0.36,0.0,1026.92,0.0
2019-02-16 15:50,50.6304516666667,-96.980765,1.5,2.1,108,996.02,-23.4,77,0.36,0.0,1026.90,0.0
2019-02-16 16:00,50.6304516666667,-96.980765,1.8,2.5,94,996.06,-22.1,77,0.36,0.0,1026.84,360.0
2019-02-16 16:10,50.6304516666667,-96.9807666666667,1.9,2.7,96,995.98,-21.9,77,0.36,0.0,1026.76,360.0
2019-02-16 16:20,50.6304533333333,-96.9807683333333,1.2,2.1,96,995.94,-21.0,77,0.36,0.0,1026.68,360.0
2019-02-16 16:30,50.630425,-96.9807516666667,1.6,2.1,109,995.96,-21.3,75,0.36,0.0,1026.68,360.0
2019-02-16 16:40,50.630445,-96.98077,1.6,2.1,139,995.96,-22.7,75,0.36,0.0,1026.72,360.0
2019-02-16 16:50,50.6304483333333,-96.9807766666667,1.5,1.9,127,996.03,-22.3,76,0.36,0.0,1026.79,360.0
2019-02-16 17:00,50.6304483333333,-96.9807733333333,1.0,1.6,119,996.12,-21.7,77,0.36,0.0,1026.96,194.5
2019-02-16 17:10,50.6304466666667,-96.9807733333333,1.0,1.8,81,996.18,-19.8,78,0.36,0.0,1026.92,194.5
2019-02-16 17:20,50.630445,-96.9807733333333,2.1,2.9,58,996.26,-20.0,76,0.36,0.0,1027.00,194.5
2019-02-16 17:30,50.630445,-96.980775,2.9,3.6,50,996.28,-20.9,76,0.36,0.0,1027.01,194.5
2019-02-16 17:40,50.630445,-96.980775,2.7,3.5,50,996.25,-20.9,77,0.36,0.0,1026.86,194.5
2019-02-16 17:50,50.630445,-96.9807733333333,3.4,4.7,45,996.21,-20.6,77,0.36,0.0,1026.71,194.5
2019-02-16 18:00,50.630445,-96.9807733333333,3.7,4.8,45,996.15,-20.8,78,0.36,0.0,1026.66,360.0
2019-02-16 18:10,50.630445,-96.980775,3.3,4.3,34,996.15,-20.5,78,0.36,0.0,1026.58,360.0
2019-02-16 18:20,50.630445,-96.980775,2.3,3.4,38,996.17,-19.9,77,0.37,0.0,1026.59,360.0
2019-02-16 18:30,50.630445,-96.9807766666667,1.3,2.3,43,996.21,-19.1,77,0.37,0.0,1026.67,360.0
2019-02-16 18:40,50.6304466666667,-96.9807916666667,2.0,2.8,33,996.03,-19.5,77,0.37,0.0,1026.48,360.0
2019-02-16 18:50,50.630445,-96.98078,1.0,1.9,35,995.87,-19.5,78,0.37,0.0,1026.29,360.0
2019-02-16 19:00,50.630445,-96.9807816666667,0.9,1.6,42,995.80,-18.9,77,0.37,0.0,1026.06,222.8
2019-02-16 19:10,50.6304433333333,-96.9807783333333,0.9,1.7,42,995.80,-18.8,78,0.37,0.0,1026.07,222.8
2019-02-16 19:20,50.6304433333333,-96.980775,1.8,2.3,42,995.76,-18.7,77,0.37,0.0,1026.07,222.8
2019-02-16 19:30,50.6304433333333,-96.980775,1.6,2.1,36,995.76,-18.5,78,0.37,0.0,1026.06,222.8
2019-02-16 19:40,50.6304433333333,-96.980775,2.5,3.2,34,995.68,-18.3,77,0.37,0.0,1025.95,222.8
2019-02-16 19:50,50.6304216666667,-96.9807616666667,2.3,2.9,21,995.67,-18.0,77,0.37,0.0,1025.93,222.8
2019-02-16 20:00,50.6304333333333,-96.9807716666667,3.0,4.0,27,995.60,-17.2,77,0.37,0.0,1025.79,161.1
2019-02-16 20:10,50.6304283333333,-96.9807783333333,4.2,4.8,33,995.50,-17.1,78,0.37,0.0,1025.64,161.1
2019-02-16 20:20,50.6304366666667,-96.9807716666667,4.7,5.6,35,995.47,-17.3,79,0.37,0.0,1025.58,161.1
2019-02-16 20:30,50.6304333333333,-96.9807683333333,5.7,6.6,27,995.41,-17.7,80,0.38,0.0,1025.57,161.1
2019-02-16 20:40,50.630435,-96.9807716666667,5.5,6.2,17,995.42,-17.8,80,0.37,0.0,1025.58,161.1
2019-02-16 20:50,50.630435,-96.9807716666667,5.2,6.0,15,995.41,-17.4,79,0.37,0.0,1025.51,161.1
2019-02-16 21:00,50.630435,-96.9807716666667,5.5,6.5,15,995.37,-17.2,80,0.38,0.0,1025.45,142.0
2019-02-16 21:10,50.630465,-96.9807883333333,5.7,6.5,18,995.43,-17.0,80,0.38,0.0,1025.50,142.0
2019-02-16 21:20,50.6304516666667,-96.9807733333333,5.4,6.3,13,995.52,-17.1,80,0.38,0.0,1025.59,142.0
2019-02-16 21:30,50.6304483333333,-96.9807716666667,5.2,5.8,15,995.54,-17.2,81,0.38,0.0,1025.60,142.0
2019-02-16 21:40,50.6304533333333,-96.980795,5.5,6.3,13,995.59,-17.3,81,0.38,0.0,1025.63,142.0
2019-02-16 21:50,50.6304466666667,-96.9807733333333,5.7,6.3,8,995.56,-17.2,81,0.38,0.0,1025.55,142.0
2019-02-16 22:00,50.6304366666667,-96.9807833333333,5.8,7.1,5,995.45,-16.7,80,0.38,0.0,1025.41,142.0
2019-02-16 22:10,50.63044,-96.9807833333333,6.6,7.8,9,995.43,-16.6,79,0.39,0.0,1025.38,142.0
2019-02-16 22:20,50.63044,-96.9807766666667,6.0,6.9,7,995.48,-16.5,79,0.39,0.0,1025.47,142.0
2019-02-16 22:30,50.6304466666667,-96.9807633333333,5.7,7.2,359,995.45,-16.4,79,0.39,0.0,1025.43,142.0
2019-02-16 22:40,50.6304416666667,-96.9807666666667,5.4,6.4,351,995.46,-16.3,77,0.39,0.0,1025.41,142.0
2019-02-16 22:50,50.6304433333333,-96.9808016666667,5.7,7.0,347,995.47,-16.2,75,0.39,0.0,1025.40,142.0
2019-02-16 23:00,50.63044,-96.9807783333333,5.3,6.4,347,995.39,-16.1,73,0.39,0.0,1025.30,323.4
2019-02-16 23:10,50.6304433333333,-96.9807783333333,5.4,6.2,353,995.37,-16.5,74,0.40,0.0,1025.31,323.4
2019-02-16 23:20,50.6304733333333,-96.980765,5.6,6.5,353,995.35,-16.9,75,0.40,0.0,1025.32,323.4
2019-02-16 23:30,50.6304433333333,-96.9807816666667,6.3,6.9,356,995.39,-17.1,75,0.40,0.0,1025.38,323.4
